Weather History for KBGD - May, 2013

Change the Weather History Date:

Tuesday, May 14, 2013

  Actual Average Record
Temperature  
Mean Temperature 76 °F 67 °F  
Max Temperature 89 °F 80 °F 98 °F (1996)
Min Temperature 63 °F 55 °F 30 °F (1953)
Degree Days  
Heating Degree Days 0 2  
Month to date heating degree days 78 43  
Since 1 July heating degree days 3591 3746  
Cooling Degree Days 11 4  
Month to date cooling degree days 40 47  
Year to date cooling degree days 86 91  
Growing Degree Days 26 (Base 50)    
Moisture  
Dew Point 35 °F    
Average Humidity 28    
Maximum Humidity 44    
Minimum Humidity 11    
Precipitation  
Precipitation 0.00 in 0.10 in 1.10 in (2010)
Month to date precipitation 0.77 0.91  
Year to date precipitation 4.16 5.07  
Snow  
Snow 0.00 in - T in (1951)
Month to date snowfall T  
Since 1 July snowfall 27.5  
Snow Depth 0.00 in    
Sea Level Pressure  
Sea Level Pressure 29.88 in    
Wind  
Wind Speed 14 mph (SSW)    
Max Wind Speed 22 mph    
Max Gust Speed 30 mph    
Visibility 10 miles    
Events      
T = Trace of Precipitation, MM = Missing Value Source: NWS Daily Summary

Daily Weather History Graph

Daily Weather History Graph

Search for Another Location

Airport or City:

Trip Planner

Search our weather history database for the weather conditions in past years. The results will help you decide how hot, cold, wet, or windy it might be!

Date:

Astronomy

May. 14, 2013 Rise Set
Actual Time 6:41 AM CDT 8:43 PM CDT
Civil Twilight 6:12 AM CDT 9:11 PM CDT
Nautical Twilight 5:38 AM CDT 9:46 PM CDT
Astronomical Twilight 5:01 AM CDT 10:23 PM CDT
Moon 10:22 AM CDT (5/14) No Moon Set
Length of Visible Light 14h 58m
Length of Day
14h 02m
Waxing Crescent, 19% of the Moon is Illuminated
May 14
Waxing Crescent
May 17
First Quarter
May 24
Full
May 31
Last Quarter
Jun 8
New

Hourly Weather History & Observations

Time (CDT) Temp. Dew Point Humidity Pressure Visibility Wind Dir Wind Speed Gust Speed Precip Events Conditions
12:51 AM 73.0 °F 28.9 °F 20% 29.95 in 10.0 mi SSW 17.3 mph 26.5 mph N/A   Clear
1:51 AM 70.0 °F 28.9 °F 22% 29.95 in 10.0 mi SSW 13.8 mph 23.0 mph N/A   Clear
2:51 AM 69.1 °F 28.9 °F 22% 29.94 in 10.0 mi SSW 15.0 mph 20.7 mph N/A   Clear
3:51 AM 66.9 °F 28.0 °F 23% 29.94 in 10.0 mi SW 13.8 mph 19.6 mph N/A   Clear
4:51 AM 64.0 °F 28.0 °F 26% 29.96 in 10.0 mi SW 6.9 mph - N/A   Clear
5:51 AM 66.0 °F 37.0 °F 34% 29.95 in 10.0 mi SW 17.3 mph 25.3 mph N/A   Clear
6:51 AM 64.9 °F 42.1 °F 43% 29.96 in 10.0 mi SW 13.8 mph 26.5 mph N/A   Clear
7:51 AM 66.0 °F 43.0 °F 43% 29.98 in 10.0 mi SW 13.8 mph 25.3 mph N/A   Clear
8:51 AM 71.1 °F 45.0 °F 39% 29.97 in 10.0 mi WSW 17.3 mph 24.2 mph N/A   Clear
9:51 AM 75.0 °F 46.0 °F 36% 29.96 in 10.0 mi WSW 16.1 mph 23.0 mph N/A   Clear
10:51 AM 80.1 °F 43.0 °F 27% 29.94 in 10.0 mi WSW 17.3 mph 23.0 mph N/A   Clear
11:51 AM 84.0 °F 37.9 °F 19% 29.92 in 10.0 mi SW 10.4 mph 17.3 mph N/A   Clear
1:51 PM 87.1 °F 34.0 °F 15% 29.86 in 10.0 mi SSW 15.0 mph 25.3 mph N/A   Clear
2:51 PM 88.0 °F 33.1 °F 14% 29.84 in 10.0 mi SSW 15.0 mph 25.3 mph N/A   Clear
3:51 PM 88.0 °F 32.0 °F 14% 29.83 in 10.0 mi South 13.8 mph 26.5 mph N/A   Clear
4:51 PM 88.0 °F 32.0 °F 14% 29.80 in 10.0 mi SSW 16.1 mph 21.9 mph N/A   Clear
5:51 PM 89.1 °F 28.9 °F 12% 29.78 in 10.0 mi SSW 12.7 mph 21.9 mph N/A   Clear
6:51 PM 87.1 °F 32.0 °F 14% 29.76 in 10.0 mi South 16.1 mph 20.7 mph N/A   Clear
8:51 PM 82.0 °F 34.0 °F 18% 29.75 in 10.0 mi South 9.2 mph - N/A   Clear
9:51 PM 79.0 °F 37.0 °F 22% 29.75 in 10.0 mi SSE 10.4 mph - N/A   Clear
10:51 PM 75.0 °F 37.9 °F 26% 29.77 in 10.0 mi South 15.0 mph 20.7 mph N/A   Clear
11:51 PM 73.9 °F 39.0 °F 28% 29.77 in 10.0 mi South 15.0 mph 21.9 mph N/A   Clear